TimeEDT,TemperatureF,Dew PointF,Humidity,Sea Level PressureIn,VisibilityMPH,Wind Direction,Wind SpeedMPH,Gust SpeedMPH,PrecipitationIn,Events,Conditions,WindDirDegrees,DateUTC
12:00 AM,50.0,48.2,94,29.97,25.0,NNW,2.3,-,N/A,,Mostly Cloudy,330,2012-09-26 04:00:00
1:00 AM,50.0,48.2,94,29.97,25.0,Calm,Calm,-,N/A,,Mostly Cloudy,0,2012-09-26 05:00:00
2:00 AM,50.0,48.2,94,29.96,25.0,Calm,Calm,-,N/A,,Mostly Cloudy,0,2012-09-26 06:00:00
3:00 AM,48.2,48.2,100,29.94,25.0,Calm,Calm,-,N/A,,Mostly Cloudy,0,2012-09-26 07:00:00
4:00 AM,48.2,46.4,93,29.93,25.0,East,2.3,-,N/A,,Mostly Cloudy,80,2012-09-26 08:00:00
5:00 AM,48.2,46.4,93,29.93,25.0,Calm,Calm,-,N/A,,Partly Cloudy,0,2012-09-26 09:00:00
6:00 AM,48.2,48.2,100,29.92,25.0,Calm,Calm,-,N/A,,Mostly Cloudy,0,2012-09-26 10:00:00
7:00 AM,50.0,48.2,94,29.93,25.0,Calm,Calm,-,N/A,,Overcast,0,2012-09-26 11:00:00
8:00 AM,51.8,50.0,94,29.94,25.0,Calm,Calm,-,N/A,,Overcast,0,2012-09-26 12:00:00
9:00 AM,53.6,51.8,94,29.93,25.0,Calm,Calm,-,N/A,,Overcast,0,2012-09-26 13:00:00
10:00 AM,57.2,53.6,88,29.93,25.0,Calm,Calm,-,N/A,,Overcast,0,2012-09-26 14:00:00
11:00 AM,62.6,55.4,77,29.92,25.0,SSW,11.5,-,N/A,,Overcast,210,2012-09-26 15:00:00
11:50 AM,60.8,55.4,82,29.92,25.0,SSW,11.5,-,N/A,Rain,Light Rain,210,2012-09-26 15:50:00
12:00 PM,60.8,55.4,82,29.92,15.0,SW,8.1,-,N/A,Rain,Light Rain,220,2012-09-26 16:00:00
1:00 PM,62.6,57.2,82,29.92,15.0,SW,5.8,-,N/A,,Overcast,230,2012-09-26 17:00:00
2:00 PM,62.6,57.2,82,29.90,15.0,WSW,4.6,-,N/A,Rain,Light Rain Showers,250,2012-09-26 18:00:00
3:00 PM,60.8,59.0,94,29.90,15.0,SW,2.3,-,N/A,,Overcast,230,2012-09-26 19:00:00
4:00 PM,62.6,59.0,88,29.90,15.0,WSW,3.5,-,N/A,,Mostly Cloudy,250,2012-09-26 20:00:00
4:45 PM,60.8,53.6,77,29.91,20.0,NW,11.5,17.3,N/A,Rain,Light Rain Showers,320,2012-09-26 20:45:00
5:00 PM,59.0,53.6,82,29.91,15.0,NW,4.6,-,N/A,Rain,Light Rain Showers,310,2012-09-26 21:00:00
6:00 PM,59.0,50.0,72,29.95,25.0,NNW,11.5,20.7,N/A,,Mostly Cloudy,330,2012-09-26 22:00:00
7:00 PM,55.4,46.4,72,29.97,25.0,NNW,6.9,-,N/A,,Mostly Cloudy,340,2012-09-26 23:00:00
8:00 PM,51.8,44.6,76,30.01,25.0,NNW,3.5,-,N/A,,Mostly Cloudy,330,2012-09-27 00:00:00
9:00 PM,48.2,44.6,87,30.04,25.0,NNW,3.5,-,N/A,,Partly Cloudy,340,2012-09-27 01:00:00
10:00 PM,48.2,44.6,87,30.07,25.0,NW,2.3,-,N/A,,Mostly Cloudy,320,2012-09-27 02:00:00
11:00 PM,46.4,46.4,100,30.09,25.0,West,3.5,-,N/A,,Mostly Cloudy,280,2012-09-27 03:00:00